Location: Newark
(10.9667°N, 4.8167°W)
Time: 02:14:21
(UTC+00:00)

Hubble Space Telescope - Pass Details

Date: 13 December 2019
Orbit: 536 x 540 km, 28.5° (Epoch: 20 January)

Event Time Altitude Azimuth Distance (km) Brightness Sun altitude
Exits shadow 05:22:58 26° 320° (NW) 1,073 1.8 -15.7°
Maximum altitude 05:23:37 27° 337° (NNW) 1,038 1.8 -15.6°
Drops below altitude 10° 05:27:10 10° 36° (NE) 1,782 3.6 -14.8°
Sets 05:29:41 0° 49° (NE) 2,673 4.7 -14.2°
